Terminal Aerodrome Forecast
Issued by NWS Raleigh/Durham, NC

Home | Current Version | Previous Version | Text Only | Print | Product List | Glossary On
Versions: 1 2 3 4 5 6 7 8 9 10 11 12 13 14 15 16 17 18 19 20 21 22 23 24 25 26 27 28 29 30
000
FTUS42 KRAH 210854 AAA
TAFFAY
TAF AMD
KFAY 210854Z 2109/2206 02004KT 6SM BR OVC030
      TEMPO 2109/2112 3SM BR BKN060
     FM211300 04004KT P6SM SCT040
     FM212100 06007KT P6SM OVC060
     FM220100 06008KT 6SM -RA BR SCT020 OVC050=

USA.gov is the U.S. government's official web portal to all federal, state and local government web resources and services.